Hourly Weather Izmaylovo

Today, 8 July, Wednesday

Time Temperature Precipitation Wind Pressure Humidity
00:00 +27°C° 0 mm 5 mps 740 mmHg 44%
01:00 +26°C° 0 mm 5 mps 740 mmHg 48%
02:00 +26°C° 0 mm 5 mps 740 mmHg 52%
03:00 +26°C° 0 mm 4 mps 740 mmHg 56%
04:00 +25°C° 0.1 mm 4 mps 740 mmHg 59%
05:00 +23°C° 0.1 mm 4 mps 740 mmHg 62%
06:00 +23°C° 0.1 mm 4 mps 740 mmHg 65%
07:00 +25°C° 0 mm 4 mps 740 mmHg 63%
08:00 +27°C° 0 mm 5 mps 740 mmHg 60%
09:00 +29°C° 0 mm 5 mps 740 mmHg 58%
10:00 +30°C° 0 mm 5 mps 741 mmHg 54%
11:00 +33°C° 0 mm 5 mps 741 mmHg 51%
12:00 +35°C° 0 mm 5 mps 741 mmHg 47%
13:00 +35°C° 0 mm 5 mps 741 mmHg 48%
14:00 +35°C° 0 mm 5 mps 741 mmHg 49%
15:00 +36°C° 0 mm 4 mps 740 mmHg 50%
16:00 +35°C° 0 mm 4 mps 740 mmHg 53%
17:00 +34°C° 0 mm 4 mps 740 mmHg 55%
18:00 +33°C° 0 mm 4 mps 740 mmHg 58%
19:00 +32°C° 0 mm 5 mps 740 mmHg 56%
20:00 +30°C° 0 mm 5 mps 740 mmHg 55%
21:00 +29°C° 0 mm 5 mps 740 mmHg 54%
22:00 +27°C° 0.1 mm 5 mps 740 mmHg 55%
23:00 +26°C° 0.1 mm 4 mps 740 mmHg 56%

Tomorrow, 9 July, Thursday

Time Temperature Precipitation Wind Pressure Humidity
00:00 +25°C° 0.1 mm 3 mps 740 mmHg 58%
01:00 +24°C° 0.2 mm 3 mps 739 mmHg 60%
02:00 +23°C° 0.2 mm 4 mps 739 mmHg 62%
03:00 +22°C° 0.2 mm 4 mps 739 mmHg 64%
04:00 +22°C° 0 mm 3 mps 739 mmHg 66%
05:00 +22°C° 0 mm 3 mps 739 mmHg 68%
06:00 +24°C° 0 mm 2 mps 739 mmHg 70%
07:00 +25°C° 0 mm 3 mps 739 mmHg 68%
08:00 +26°C° 0 mm 3 mps 740 mmHg 67%
09:00 +27°C° 0 mm 4 mps 740 mmHg 65%
10:00 +28°C° 0 mm 3 mps 740 mmHg 65%
11:00 +28°C° 0 mm 3 mps 741 mmHg 64%
12:00 +29°C° 0 mm 3 mps 741 mmHg 64%
13:00 +29°C° 0.1 mm 3 mps 741 mmHg 66%
14:00 +28°C° 0.1 mm 3 mps 741 mmHg 68%
15:00 +28°C° 0.1 mm 4 mps 741 mmHg 71%
16:00 +26°C° 3.1 mm 4 mps 741 mmHg 78%
17:00 +23°C° 3.1 mm 4 mps 742 mmHg 85%
18:00 +21°C° 3.1 mm 4 mps 742 mmHg 93%
19:00 +21°C° 0.5 mm 4 mps 742 mmHg 93%
20:00 +20°C° 0.5 mm 4 mps 743 mmHg 92%
21:00 +19°C° 0.5 mm 4 mps 743 mmHg 92%
22:00 +18°C° 0 mm 4 mps 743 mmHg 92%
23:00 +18°C° 0 mm 4 mps 744 mmHg 91%

Day after tomorrow, 10 July, Friday

Time Temperature Precipitation Wind Pressure Humidity
00:00 +18°C° 0 mm 4 mps 744 mmHg 91%
01:00 +17°C° 0 mm 4 mps 744 mmHg 92%
02:00 +16°C° 0 mm 3 mps 744 mmHg 93%
03:00 +16°C° 0 mm 3 mps 745 mmHg 94%
04:00 +15°C° 0 mm 4 mps 745 mmHg 92%
05:00 +15°C° 0 mm 4 mps 746 mmHg 91%
06:00 +15°C° 0 mm 4 mps 746 mmHg 89%
07:00 +18°C° 0 mm 4 mps 746 mmHg 83%
08:00 +19°C° 0 mm 4 mps 747 mmHg 76%
09:00 +20°C° 0 mm 4 mps 747 mmHg 70%
10:00 +22°C° 0 mm 4 mps 747 mmHg 67%
11:00 +23°C° 0 mm 4 mps 748 mmHg 64%
12:00 +25°C° 0 mm 4 mps 748 mmHg 60%
13:00 +25°C° 0 mm 4 mps 748 mmHg 59%
14:00 +25°C° 0 mm 4 mps 748 mmHg 58%
15:00 +25°C° 0 mm 5 mps 748 mmHg 58%
16:00 +23°C° 0 mm 4 mps 748 mmHg 61%
17:00 +23°C° 0 mm 4 mps 749 mmHg 63%
18:00 +22°C° 0 mm 4 mps 749 mmHg 66%
19:00 +21°C° 0 mm 4 mps 749 mmHg 70%
20:00 +19°C° 0 mm 3 mps 749 mmHg 74%
21:00 +17°C° 0 mm 3 mps 750 mmHg 77%
22:00 +17°C° 0 mm 3 mps 750 mmHg 79%
23:00 +16°C° 0 mm 3 mps 750 mmHg 82%

11 July, Saturday

Time Temperature Precipitation Wind Pressure Humidity
00:00 +16°C° 0 mm 3 mps 750 mmHg 84%
01:00 +14°C° 0 mm 3 mps 750 mmHg 85%
02:00 +14°C° 0 mm 3 mps 751 mmHg 87%
03:00 +13°C° 0 mm 3 mps 751 mmHg 88%
04:00 +13°C° 0 mm 3 mps 751 mmHg 87%
05:00 +14°C° 0 mm 3 mps 751 mmHg 85%
06:00 +16°C° 0 mm 3 mps 751 mmHg 84%
07:00 +17°C° 0 mm 3 mps 751 mmHg 78%
08:00 +19°C° 0 mm 3 mps 752 mmHg 72%
09:00 +21°C° 0 mm 3 mps 752 mmHg 66%
10:00 +22°C° 0 mm 3 mps 752 mmHg 61%
11:00 +24°C° 0 mm 3 mps 752 mmHg 56%
12:00 +25°C° 0 mm 3 mps 752 mmHg 51%
13:00 +25°C° 0 mm 3 mps 752 mmHg 51%
14:00 +25°C° 0 mm 3 mps 752 mmHg 52%
15:00 +25°C° 0 mm 3 mps 752 mmHg 52%
16:00 +25°C° 0 mm 3 mps 751 mmHg 56%
17:00 +25°C° 0 mm 3 mps 751 mmHg 61%
18:00 +24°C° 0 mm 2 mps 751 mmHg 65%
19:00 +23°C° 0 mm 2 mps 751 mmHg 68%
20:00 +20°C° 0 mm 2 mps 751 mmHg 71%
21:00 +18°C° 0 mm 2 mps 751 mmHg 74%
22:00 +17°C° 0 mm 2 mps 751 mmHg 76%
23:00 +17°C° 0 mm 2 mps 751 mmHg 78%

12 July, Sunday

Time Temperature Precipitation Wind Pressure Humidity
00:00 +16°C° 0 mm 2 mps 751 mmHg 81%
01:00 +16°C° 0 mm 2 mps 751 mmHg 82%
02:00 +15°C° 0 mm 2 mps 751 mmHg 84%
03:00 +15°C° 0 mm 2 mps 751 mmHg 86%
04:00 +15°C° 0 mm 2 mps 751 mmHg 85%
05:00 +16°C° 0 mm 2 mps 750 mmHg 84%
06:00 +17°C° 0 mm 2 mps 750 mmHg 83%
07:00 +18°C° 0 mm 2 mps 750 mmHg 78%
08:00 +20°C° 0 mm 2 mps 750 mmHg 73%
09:00 +22°C° 0 mm 3 mps 750 mmHg 68%
10:00 +24°C° 0 mm 3 mps 750 mmHg 62%
11:00 +25°C° 0 mm 3 mps 750 mmHg 57%
12:00 +26°C° 0 mm 3 mps 750 mmHg 51%
13:00 +26°C° 0 mm 3 mps 749 mmHg 50%
14:00 +27°C° 0 mm 3 mps 749 mmHg 50%
15:00 +27°C° 0 mm 3 mps 748 mmHg 49%
16:00 +27°C° 0 mm 3 mps 748 mmHg 54%
17:00 +27°C° 0 mm 2 mps 748 mmHg 59%
18:00 +26°C° 0 mm 2 mps 747 mmHg 64%
19:00 +24°C° 0 mm 2 mps 747 mmHg 67%
20:00 +23°C° 0 mm 2 mps 747 mmHg 70%
21:00 +20°C° 0 mm 2 mps 747 mmHg 72%
22:00 +19°C° 0 mm 2 mps 747 mmHg 75%
23:00 +18°C° 0 mm 2 mps 747 mmHg 77%

13 July, Monday

Time Temperature Precipitation Wind Pressure Humidity
00:00 +18°C° 0 mm 2 mps 746 mmHg 80%
01:00 +17°C° 0 mm 2 mps 746 mmHg 82%
02:00 +17°C° 0 mm 2 mps 746 mmHg 83%
03:00 +17°C° 0 mm 2 mps 745 mmHg 85%
04:00 +17°C° 0 mm 2 mps 745 mmHg 85%
05:00 +18°C° 0 mm 2 mps 745 mmHg 86%
06:00 +18°C° 0 mm 2 mps 745 mmHg 86%
07:00 +20°C° 0 mm 2 mps 745 mmHg 81%
08:00 +23°C° 0 mm 2 mps 744 mmHg 76%
09:00 +25°C° 0 mm 2 mps 744 mmHg 71%
10:00 +26°C° 0.1 mm 2 mps 744 mmHg 67%
11:00 +27°C° 0.1 mm 2 mps 744 mmHg 63%
12:00 +28°C° 0.1 mm 2 mps 744 mmHg 60%
13:00 +28°C° 0.7 mm 2 mps 743 mmHg 61%
14:00 +28°C° 0.7 mm 2 mps 743 mmHg 62%
15:00 +27°C° 0.7 mm 2 mps 742 mmHg 63%
16:00 +27°C° 0.4 mm 2 mps 742 mmHg 66%
17:00 +27°C° 0.4 mm 2 mps 741 mmHg 69%
18:00 +26°C° 0.4 mm 2 mps 741 mmHg 72%
19:00 +25°C° 0.4 mm 2 mps 741 mmHg 77%
20:00 +23°C° 0.4 mm 2 mps 741 mmHg 82%
21:00 +21°C° 0.4 mm 2 mps 741 mmHg 87%
22:00 +20°C° 0.1 mm 2 mps 741 mmHg 88%
23:00 +21°C° 0.1 mm 1 mps 741 mmHg 89%
Show more